Americus, GA

3:01 PM EDT on October 01, 2016 (GMT -0400)
Souther

Weather History for KACJ - March, 2014

Change the Weather History Date:

Thursday, March 27, 2014

  Actual Average (KABY) Record (KABY)
Temperature  
Mean Temperature 52 °F 62 °F  
Max Temperature 68 °F 75 °F 87 °F (2012)
Min Temperature 35 °F 49 °F 23 °F (1955)
Degree Days  
Heating Degree Days 14 5  
Month to date heating degree days 192  
Since 1 July heating degree days 1752  
Cooling Degree Days 0 1  
Month to date cooling degree days 27  
Year to date cooling degree days 36  
Growing Degree Days 2 (Base 50)    
Moisture  
Dew Point 37 °F    
Average Humidity 58    
Maximum Humidity 87    
Minimum Humidity 32    
Precipitation  
Precipitation 0.00 in 0.18 in 3.29 in (2005)
Month to date precipitation 4.30  
Year to date precipitation 13.28  
Sea Level Pressure  
Sea Level Pressure 30.28 in    
Wind  
Wind Speed 5 mph (SSE)    
Max Wind Speed 14 mph    
Max Gust Speed 23 mph    
Visibility 10 miles    
Events      
T = Trace of Precipitation, MM = Missing Value Source: NWS Daily Summary

Daily Weather History Graph

Daily Weather History Graph

Search for Another Location

Airport or City:

Trip Planner

Search our weather history database for the weather conditions in past years. The results will help you decide how hot, cold, wet, or windy it might be!

Date:

Astronomy

Mar. 27, 2014 Rise Set
Actual Time 7:31 AM EDT 7:53 PM EDT
Civil Twilight 7:06 AM EDT 8:17 PM EDT
Nautical Twilight 6:38 AM EDT 8:46 PM EDT
Astronomical Twilight 6:09 AM EDT 9:15 PM EDT
Moon 5:10 AM EDT (3/27) 4:49 PM EDT (3/27)
Length of Visible Light 13h 10m
Length of Day
12h 21m
Waning Crescent, 13% of the Moon is Illuminated
Mar 27
Waning Crescent
Mar 30
New
Apr 7
First Quarter
Apr 15
Full
Apr 22
Last Quarter

Hourly Weather History & Observations

Time (EDT) Temp. Windchill Dew Point Humidity Pressure Visibility Wind Dir Wind Speed Gust Speed Precip Events Conditions
12:10 AM 39.2 °F - 28.4 °F 65% 30.29 in 10.0 mi Calm Calm - N/A   Clear
12:30 AM 37.4 °F 34.9 °F 32.0 °F 81% 30.28 in 10.0 mi SSE 3.5 mph - N/A   Clear
12:50 AM 41.0 °F - 28.4 °F 61% 30.29 in 10.0 mi Calm Calm - N/A   Clear
1:10 AM 41.0 °F - 30.2 °F 65% 30.29 in 10.0 mi Calm Calm - N/A   Clear
1:30 AM 37.4 °F - 30.2 °F 75% 30.29 in 10.0 mi Calm Calm - N/A   Clear
1:50 AM 39.2 °F - 30.2 °F 70% 30.29 in 10.0 mi Calm Calm - N/A   Clear
2:10 AM 35.6 °F - 32.0 °F 87% 30.29 in 10.0 mi Calm Calm - N/A   Clear
2:30 AM 35.6 °F 32.8 °F 32.0 °F 87% 30.28 in 10.0 mi NE 3.5 mph - N/A   Clear
2:50 AM 35.6 °F - 30.2 °F 81% 30.28 in 10.0 mi Calm Calm - N/A   Clear
3:10 AM 35.6 °F - 32.0 °F 87% 30.28 in 10.0 mi Calm Calm - N/A   Clear
3:30 AM 37.4 °F - 30.2 °F 75% 30.28 in 10.0 mi Calm Calm - N/A   Clear
3:50 AM 37.4 °F - 32.0 °F 81% 30.30 in 10.0 mi Calm Calm - N/A   Clear
4:10 AM 35.6 °F - 32.0 °F 87% 30.29 in 10.0 mi Calm Calm - N/A   Clear
4:30 AM 37.4 °F - 33.8 °F 87% 30.30 in 10.0 mi Calm Calm - N/A   Clear
4:50 AM 39.2 °F - 32.0 °F 75% 30.30 in 10.0 mi Calm Calm - N/A   Clear
5:10 AM 37.4 °F 34.9 °F 33.8 °F 87% 30.29 in 10.0 mi NE 3.5 mph - N/A   Clear
5:30 AM 37.4 °F 34.9 °F 33.8 °F 87% 30.30 in 10.0 mi SSE 3.5 mph - N/A   Clear
5:50 AM 41.0 °F 38.0 °F 32.0 °F 70% 30.29 in 10.0 mi SSE 4.6 mph - N/A   Clear
6:10 AM 42.8 °F 39.3 °F 30.2 °F 61% 30.28 in 10.0 mi SSE 5.8 mph - N/A   Clear
6:30 AM 42.8 °F - 30.2 °F 61% 30.31 in 10.0 mi Calm Calm - N/A   Clear
6:50 AM 42.8 °F - 30.2 °F 61% 30.32 in 10.0 mi Calm Calm - N/A   Clear
7:10 AM 41.0 °F - 30.2 °F 65% 30.32 in 10.0 mi Calm Calm - N/A   Clear
7:30 AM 39.2 °F 37.0 °F 30.2 °F 70% 30.32 in 10.0 mi ESE 3.5 mph - N/A   Clear
7:50 AM 41.0 °F - 30.2 °F 65% 30.33 in 10.0 mi Calm Calm - N/A   Clear
8:10 AM 41.0 °F 39.0 °F 32.0 °F 70% 30.33 in 10.0 mi ESE 3.5 mph - N/A   Clear
8:30 AM 44.6 °F 42.2 °F 32.0 °F 61% 30.34 in 10.0 mi ESE 4.6 mph - N/A   Clear
8:50 AM 44.6 °F 42.2 °F 32.0 °F 61% 30.34 in 10.0 mi East 4.6 mph - N/A   Clear
9:10 AM 46.4 °F 43.5 °F 32.0 °F 57% 30.35 in 10.0 mi SE 5.8 mph - N/A   Clear
9:30 AM 46.4 °F 42.4 °F 32.0 °F 57% 30.34 in 10.0 mi SE 8.1 mph - N/A   Clear
9:50 AM 48.2 °F - 33.8 °F 58% 30.35 in 10.0 mi SSE 11.5 mph - N/A   Clear
10:10 AM 50.0 °F - 33.8 °F 54% 30.35 in 10.0 mi SSE 8.1 mph - N/A   Clear
10:30 AM 53.6 °F - 33.8 °F 47% 30.36 in 10.0 mi SE 12.7 mph 17.3 mph N/A   Clear
10:50 AM 53.6 °F - 32.0 °F 44% 30.36 in 10.0 mi SE 11.5 mph - N/A   Clear
11:10 AM 57.2 °F - 32.0 °F 38% 30.36 in 10.0 mi SSE 11.5 mph 16.1 mph N/A   Clear
11:30 AM 59.0 °F - 32.0 °F 36% 30.36 in 10.0 mi SSE 10.4 mph - N/A   Clear
11:50 AM 59.0 °F - 32.0 °F 36% 30.35 in 10.0 mi SSE 8.1 mph - N/A   Clear
12:10 PM 60.8 °F - 32.0 °F 34% 30.34 in 10.0 mi SE 9.2 mph 19.6 mph N/A   Clear
12:30 PM 60.8 °F - 32.0 °F 34% 30.34 in 10.0 mi SE 11.5 mph 16.1 mph N/A   Clear
12:50 PM 62.6 °F - 32.0 °F 32% 30.33 in 10.0 mi South 11.5 mph 17.3 mph N/A   Clear
1:10 PM 62.6 °F - 32.0 °F 32% 30.33 in 10.0 mi South 9.2 mph 19.6 mph N/A   Clear
1:30 PM 62.6 °F - 33.8 °F 34% 30.32 in 10.0 mi SE 10.4 mph - N/A   Clear
1:50 PM 66.2 °F - 35.6 °F 32% 30.30 in 10.0 mi South 11.5 mph 18.4 mph N/A   Clear
2:10 PM 64.4 °F - 33.8 °F 32% 30.29 in 10.0 mi SSE 10.4 mph 18.4 mph N/A   Clear
2:30 PM 66.2 °F - 35.6 °F 32% 30.28 in 10.0 mi South 8.1 mph 20.7 mph N/A   Clear
2:50 PM 66.2 °F - 35.6 °F 32% 30.28 in 10.0 mi South 12.7 mph 21.9 mph N/A   Clear
3:10 PM 68.0 °F - 37.4 °F 33% 30.26 in 10.0 mi SSE 12.7 mph 17.3 mph N/A   Clear
3:30 PM 68.0 °F - 41.0 °F 37% 30.25 in 10.0 mi South 12.7 mph 20.7 mph N/A   Clear
3:50 PM 68.0 °F - 41.0 °F 37% 30.25 in 10.0 mi South 10.4 mph 17.3 mph N/A   Mostly Cloudy
4:10 PM 68.0 °F - 42.8 °F 40% 30.25 in 10.0 mi South 11.5 mph 18.4 mph N/A   Overcast
4:30 PM 66.2 °F - 42.8 °F 43% 30.24 in 10.0 mi South 10.4 mph 19.6 mph N/A   Overcast
4:50 PM 68.0 °F - 44.6 °F 43% 30.24 in 10.0 mi SSE 11.5 mph 17.3 mph N/A   Overcast
5:10 PM 68.0 °F - 44.6 °F 43% 30.23 in 10.0 mi South 10.4 mph - N/A   Overcast
5:30 PM 66.2 °F - 44.6 °F 46% 30.23 in 10.0 mi South 10.4 mph - N/A   Overcast
5:50 PM 68.0 °F - 44.6 °F 43% 30.22 in 10.0 mi South 11.5 mph 18.4 mph N/A   Overcast
6:10 PM 68.0 °F - 46.4 °F 46% 30.21 in 10.0 mi SSE 10.4 mph 16.1 mph N/A   Overcast
6:30 PM 68.0 °F - 46.4 °F 46% 30.20 in 10.0 mi SSE 13.8 mph 18.4 mph N/A   Overcast
6:50 PM 66.2 °F - 44.6 °F 46% 30.20 in 10.0 mi South 13.8 mph 23.0 mph N/A   Mostly Cloudy
7:10 PM 64.4 °F - 46.4 °F 52% 30.20 in 10.0 mi SSE 11.5 mph - N/A   Scattered Clouds
7:30 PM 64.4 °F - 46.4 °F 52% 30.20 in 10.0 mi South 10.4 mph 18.4 mph N/A   Mostly Cloudy
7:50 PM 62.6 °F - 46.4 °F 55% 30.21 in 10.0 mi South 12.7 mph 17.3 mph N/A   Scattered Clouds
8:10 PM 62.6 °F - 46.4 °F 55% 30.22 in 10.0 mi South 8.1 mph - N/A   Mostly Cloudy
8:30 PM 62.6 °F - 48.2 °F 59% 30.23 in 10.0 mi South 5.8 mph - N/A   Overcast
8:50 PM 62.6 °F - 48.2 °F 59% 30.23 in 10.0 mi SSE 6.9 mph - N/A   Overcast
9:10 PM 62.6 °F - 48.2 °F 59% 30.23 in 10.0 mi SSE 6.9 mph - N/A   Overcast
9:30 PM 62.6 °F - 48.2 °F 59% 30.23 in 10.0 mi SSE 8.1 mph - N/A   Overcast
9:50 PM 60.8 °F - 50.0 °F 68% 30.23 in 10.0 mi SSE 6.9 mph - N/A   Overcast
10:10 PM 60.8 °F - 50.0 °F 68% 30.23 in 10.0 mi SE 5.8 mph - N/A   Scattered Clouds
10:30 PM 59.0 °F - 50.0 °F 72% 30.23 in 10.0 mi SSE 8.1 mph - N/A   Clear
10:50 PM 59.0 °F - 50.0 °F 72% 30.23 in 10.0 mi SSE 6.9 mph - N/A   Clear
11:10 PM 59.0 °F - 50.0 °F 72% 30.23 in 10.0 mi South 6.9 mph - N/A   Mostly Cloudy
11:30 PM 59.0 °F - 50.0 °F 72% 30.23 in 10.0 mi South 6.9 mph - N/A   Overcast
11:50 PM 59.0 °F - 50.0 °F 72% 30.21 in 10.0 mi SSE 6.9 mph - N/A   Overcast